Preview of NWS' New Version of Forecast
This preview is not operational and should not be used for support decisions.
Latest weather observations around

Fort Smith, Fort Smith Regional Airport (KFSM)

Using English Units (Switch to International System of Units)
Date/ Time (CST) Wind (mph) Vis. (mi) Weather Sky Cond. Temp (°F) Rel. Humidity Wind Chill (°F) Heat Index (°F) Pressure Precip. (in)
Air Dwpt 6 hour Altimeter (inHg) Sea level (inHg) 1 hr 3 hr 6 hr
Max Min
Feb 25 03:53 Calm 6 Fog/Mist CLR 35 34     96%     30.02 30.02 0    
Feb 25 02:53 Calm 10 Clear CLR 36 35     96%     30.04 30.04 0 0  
Feb 25 01:53 Calm 10 Clear CLR 38 37     97%     30.05 30.05      
Feb 25 00:53 Calm 10 Clear CLR 40 37     89%     30.04 30.04      
Feb 24 23:53 W 6 10 Clear CLR 41 37     86% 37   30.04 30.04      
Feb 24 22:53 WNW 9 10 Clear CLR 46 38     73% 41   30.03 30.03      
Feb 24 21:53 NW 9 10 Clear CLR 47 39     74% 43   30.01 30.01      
Feb 24 20:53 NW 11 10 Clear CLR 50 42     74% 46   29.97 29.97      
Feb 24 19:53 W 8 10 Clear CLR 50 46     86% 47   29.93 29.93      
Feb 24 18:53 W 10 10 Clear CLR 52 48     86%     29.89 29.88      
Feb 24 18:21 W 16 10 Mostly Clear FEW026 53 48     83%     29.87        
Feb 24 17:53 WNW 15 10 Mostly Cloudy BKN021 54 49     83%     29.84 29.84     1
Feb 24 16:53 W 20 10 Mostly Cloudy and Windy SCT013 BKN021 54 51     90%     29.8 29.8      
Feb 24 16:27 W 18 10 Cloudy OVC013 57 53     87%     29.78        
Feb 24 15:53 W 20 10 Cloudy and Windy OVC009 55 52     89%     29.77 29.77      
Feb 24 14:53   10 Cloudy BKN006 OVC010 54 52     93%     29.74 29.74   1  
Feb 24 14:32   10 Mostly Cloudy BKN008 BKN018 BKN095 58 55     90%     29.72        
Feb 24 14:30   10 Mostly Cloudy BKN010 BKN018 BKN095 58 55     90%     29.73        
Feb 24 14:11 SW 13 10 Mostly Cloudy FEW007 SCT049 BKN090 60 58     93%     29.71        
Feb 24 13:53 SW 9 10 Cloudy FEW013 BKN046 OVC085 59 58     96%     29.7 29.7 0    
Feb 24 13:46 SW 6 3 Fog/Mist FEW013 OVC046 59 58     96%     29.7   0    
Feb 24 13:15 NNW 6 3 Heavy Rain and Fog/Mist FEW022 BKN041 OVC049 59 58     96%     29.71   0    
Feb 24 12:53 WNW 11 3 Thunderstorms and Heavy Rain and Fog/Mist FEW026 OVC032 59 58     96%     29.72   1    
Feb 24 12:47 NW 16 2 Thunderstorms and Heavy Rain and Fog/Mist FEW005 OVC032 57 57     100%     29.69   1    
Feb 24 12:43 NW 14 1.75 Thunderstorms and Heavy Rain and Fog/Mist FEW005 BKN026 OVC043 59 58     96%     29.71   1    
Feb 24 12:36 WNW 13 0.75 Thunderstorms and Heavy Rain and Fog/Mist FEW008 BKN024 OVC048 58 58     100%     29.73   0    
Feb 24 12:29 WNW 6 0.75 Thunderstorms and Heavy Rain and Fog/Mist and Squalls FEW005 BKN032 OVC048 60 59     96%     29.71   0    
Feb 24 12:24   5 Thunderstorms and Rain and Fog/Mist and Squalls FEW007 BKN049 OVC065 58 58     100%     29.74   0    
Feb 24 12:21 N 8 5 Thunderstorms and Rain and Fog/Mist SCT032 BKN049 OVC075 58 58     100%     29.68   0    
Feb 24 11:53 ENE 10 10 Cloudy FEW004 BKN049 OVC070 58 57     97%     29.69 29.68 0   0
Feb 24 11:38 ENE 6 10 Cloudy SCT003 BKN055 OVC110 57 57     100%     29.72   0    
Feb 24 10:53 ENE 10 7 Light Rain OVC004 55 55     100%     29.74 29.73 0    
Feb 24 10:28 ENE 9 4 Heavy Rain and Fog/Mist BKN005 OVC045 55 55     100%     29.79   0    
Feb 24 09:53 ENE 7 10 Light Rain OVC003 55 55     100%     29.82 29.82 0    
Feb 24 09:00 E 10 4 Rain and Fog/Mist BKN002 OVC100 54 54     100%     29.86   0    
Feb 24 08:53 E 9 1.25 Rain and Fog/Mist OVC002 53 53     100%     29.85 29.85 0 0  
Feb 24 07:53 E 5 1 Fog/Mist OVC002 53 53     100%     29.9 29.9      
Feb 24 06:53 NE 6 1 Fog/Mist OVC003 53 53     100%     29.92 29.91 0    
Feb 24 05:53 ENE 3 2 Light Rain and Fog/Mist OVC002 53 53     100%     29.95 29.94 0   0
Feb 24 04:53 Calm 2.5 Fog/Mist OVC002 53 53     100%     29.94 29.94 0    
Feb 24 03:53 ENE 5 4 Light Rain and Fog/Mist OVC003 53 53     100%     29.94 29.94 0    
Feb 24 02:53 NNE 6 4 Light Rain and Fog/Mist BKN003 OVC010 53 53     100%     29.96 29.96 0 0  
Feb 24 02:41 N 5 3 Light Rain and Fog/Mist BKN004 BKN010 OVC016 53 53     100%     29.97   0    
Feb 24 02:31 NNE 3 4 Light Rain and Fog/Mist SCT004 BKN008 OVC016 53 53     100%     29.96   0    
Feb 24 02:20 NNE 3 4 Light Rain and Fog/Mist SCT008 BKN016 OVC027 53 53     100%     29.96   0    
Feb 24 02:08 NNE 5 5 Light Rain and Fog/Mist SCT006 BKN010 OVC027 53 53     100%     29.97   0    
Feb 24 01:53 NE 7 3 Rain and Fog/Mist OVC006 54 53     97%     29.97 29.97 0    
Feb 24 00:53 ENE 9 10 Light Rain OVC005 54 54     100%     29.97 29.96 0    
Feb 24 00:44 ENE 7 10 Light Rain OVC005 54 53     97%     29.98   0    
Feb 23 23:53 ESE 7 10 Cloudy OVC007 55 54     96%     29.98 29.97     0
Feb 23 22:53 E 8 10 Cloudy OVC007 54 54     100%     30 29.99      
Feb 23 22:28 E 8 10 Cloudy BKN008 OVC015 54 53     97%     30.02        
Feb 23 22:06 E 9 10 Cloudy SCT009 OVC015 54 53     97%     30.03        
Feb 23 21:53 E 8 10 Cloudy BKN008 OVC015 53 53     100%     30.04 30.04      
Feb 23 21:14 ENE 9 10 Cloudy OVC007 53 52     96%     30.05        
Feb 23 20:53 ENE 9 10 Cloudy OVC004 53 52     96%     30.06 30.06 0 0  
Feb 23 19:53 ENE 9 10 Light Rain OVC004 52 51     97%     30.07 30.07 0    
Feb 23 18:53 E 14 10 Light Rain BKN004 OVC034 51 51     100%     30.09 30.09 0    
Feb 23 17:53 ENE 9 4 Light Rain and Fog/Mist OVC004 51 50     96%     30.13 30.13 0   1
Feb 23 17:20 E 8 3 Rain and Fog/Mist BKN004 OVC042 51 50     96%     30.14   0    
Feb 23 17:03 E 10 3 Heavy Rain and Fog/Mist OVC005 50 50     100% 46   30.14   0    
Feb 23 16:53 E 7 2.5 Heavy Rain and Fog/Mist OVC005 50 50     100% 47   30.15 30.15 0    
Feb 23 15:53 E 7 4 Rain and Fog/Mist BKN005 OVC039 50 49     96% 47   30.15 30.15 0    
Feb 23 14:53 ENE 10 6 Light Rain and Fog/Mist BKN005 BKN042 OVC060 49 49     100% 45   30.16 30.16 0 0  
Feb 23 14:49 E 10 6 Light Rain and Fog/Mist BKN005 BKN035 OVC060 48 48     100% 44   30.17   0    
Feb 23 14:42 E 14 4 Rain and Fog/Mist SCT005 BKN039 OVC075 49 48     97% 44   30.16   0    
Feb 23 14:11 ENE 13 3 Rain and Fog/Mist BKN005 OVC031 49 48     97% 44   30.18   0    
Feb 23 14:01 5 4 Light Rain and Fog/Mist BKN004 OVC033 49 48     97% 47   30.23   0    
Feb 23 13:53 ENE 14 2.5 Heavy Rain and Fog/Mist BKN004 BKN036 OVC060 48 48     100% 42   30.18 30.18 0    
Feb 23 13:37 ENE 5 4 Light Rain and Fog/Mist BKN004 BKN014 OVC060 48 48     100% 46   30.23   0    
Feb 23 13:20 ENE 9 3 Thunderstorms and Rain and Fog/Mist BKN004 BKN050 OVC100 48 47     96% 44   30.22   0    
Feb 23 12:53 NE 11 4 Light Rain and Fog/Mist FEW008 BKN070 OVC085 48 47     96% 43   30.22 30.22 0    
Feb 23 12:21 NNE 6 4 Light Rain and Fog/Mist FEW006 BKN065 OVC085 48 47     96% 45   30.27   0    
Feb 23 11:53 E 7 8 Light Rain SCT005 OVC017 48 47     96% 45   30.26 30.26 0   0
Feb 23 11:06 E 10 10 Light Rain OVC005 48 46     93% 43   30.26   0    
Feb 23 10:53 N 5 10 Light Rain OVC004 48 47     96% 46   30.27 30.27 0    
Feb 23 09:53 3 9 Cloudy OVC004 47 46     97% 46   30.28 30.28      
Feb 23 08:53 Calm 10 Cloudy OVC004 47 46     97%     30.27 30.27      
Feb 23 07:53 Calm 10 Cloudy OVC004 46 46     100%     30.27 30.27      
Feb 23 07:28 Calm 10 Cloudy BKN004 OVC010 46 45     96%     30.27        
Feb 23 07:08 WNW 3 10 Cloudy SCT004 OVC010 46 45     96% 45   30.27        
Feb 23 06:53 NNW 3 6 Fog/Mist BKN004 OVC010 46 46     100% 45   30.27 30.27      
Feb 23 05:53 W 7 3 Fog/Mist OVC003 46 46     100% 42   30.27 30.28      
Feb 23 05:45 W 7 3 Fog/Mist OVC003 46 46     100% 42   30.27        
Feb 23 05:32 W 7 2.5 Fog/Mist OVC003 46 46     100% 42   30.27        
Feb 23 05:02 W 7 3 Fog/Mist OVC004 46 46     100% 42   30.26        
Feb 23 04:53 WSW 5 4 Fog/Mist OVC005 46 46     100% 44   30.25 30.25      
Feb 23 04:33 WSW 5 3 Fog/Mist OVC005 46 46     100% 44   30.25        
Feb 23 04:11 Calm 2 Fog/Mist OVC005 46 46     100%     30.25        
Feb 23 03:53 Calm 1.75 Fog/Mist BKN002 OVC010 46 46     100%     30.24 30.24      
Feb 23 03:51 Calm 1.75 Fog/Mist BKN002 OVC010 46 46     100%     30.24        
Feb 23 03:34 Calm 1.5 Fog/Mist SCT004 OVC010 46 46     100%     30.22        
Feb 23 02:53 Calm 1.75 Fog/Mist OVC004 46 46     100%     30.22 30.23      
Feb 23 02:42 Calm 2 Fog/Mist OVC004 46 46     100%     30.22        
Feb 23 01:51 Calm 1.75 Fog/Mist OVC004 46 46     100%     30.23 30.23      
Feb 23 01:50 Calm 1.75 Fog/Mist OVC004 46 46     100%     30.23        
Feb 23 01:40 Calm 2 Fog/Mist OVC005 46 46     100%     30.22        
Feb 23 00:53 Calm 2.5 Fog/Mist OVC004 46 46     100%     30.22 30.22      
Feb 23 00:46 NNE 3 2.5 Fog/Mist OVC004 47 46     97% 46   30.21        
Feb 22 23:53 Calm 6 Fog/Mist OVC004 47 46     97%     30.22 30.22     0
Feb 22 23:23 Calm 6 Fog/Mist OVC004 47 46     97%     30.22        
Feb 22 22:53 NE 5 6 Fog/Mist OVC005 47 46     97% 45   30.22 30.22      
Feb 22 22:03 E 5 10 Cloudy OVC005 47 46     97% 45   30.22        
Feb 22 21:53 E 5 9 Cloudy OVC004 46 46     100% 44   30.22 30.22      
Feb 22 20:53 ESE 5 9 Cloudy OVC003 46 45     96% 44   30.22 30.22 0 0  
Feb 22 19:53 E 5 8 Light Rain OVC004 46 45     96% 44   30.21 30.21 0    
Feb 22 19:32 NE 3 9 Light Rain BKN004 OVC024 46 45     96% 45   30.22   0    
Feb 22 18:59 ENE 5 9 Light Rain SCT005 BKN018 OVC028 46 45     96% 44   30.21   0    
Feb 22 18:53 Calm 5 Thunderstorms and Rain and Fog/Mist SCT005 BKN015 OVC048 46 46     100%     30.22 30.22 0    
Feb 22 18:48 ENE 7 4 Thunderstorms and Rain and Fog/Mist BKN005 BKN015 OVC027 46 45     93% 43   30.2   0    
Feb 22 18:32 NE 6 3 Light Rain and Fog/Mist FEW007 BKN013 OVC019 46 45     96% 43   30.2   0    
Feb 22 18:25 NE 7 3 Light Rain and Fog/Mist BKN005 BKN011 OVC025 46 45     96% 42   30.19   0    
Feb 22 18:10 NNE 5 4 Thunderstorms and Rain and Fog/Mist OVC005 46 45     96% 44   30.2   0    
Feb 22 17:53 NNW 5 9 Light Rain OVC005 46 45     96% 44   30.2 30.2 0   0
Feb 22 16:53 NE 9 4 Light Rain and Fog/Mist OVC005 46 45     96% 41   30.17 30.18 0    
Feb 22 15:53 E 7 10 Light Rain OVC008 47 45     93% 44   30.18 30.19 0    
Feb 22 14:53 ESE 6 4 Heavy Rain and Fog/Mist OVC006 46 45     96% 43   30.2 30.2 0 0  
Feb 22 13:53   8 Light Rain BKN006 BKN048 OVC080 46 44     93%     30.17   0    
Feb 22 13:19 E 9 5 Rain and Fog/Mist FEW009 BKN085 OVC100 45 44     97% 40   30.27   0    
Feb 22 12:53 E 9 9 Light Rain OVC009 46 43     89% 41   30.3 30.3 0    
Feb 22 11:53 SE 5 10 Cloudy OVC007 45 43     93% 43   30.34 30.34      
Feb 22 10:53 ESE 8 10 Cloudy OVC005 44 42     93% 40   30.31 30.32      
Feb 22 10:18 E 10 10 Cloudy OVC005 44 42     93% 39   30.31        
Feb 22 09:53 E 6 10 Cloudy OVC004 42 41     96% 38   30.31 30.31      
Feb 22 09:48 E 6 10 Cloudy OVC004 43 41     93% 39   30.32        
Feb 22 08:53 6 3 Fog/Mist OVC005 41 40     96% 37   30.34 30.35      
Feb 22 08:21 SE 5 3 Fog/Mist OVC002 40 40     100% 37   30.32        
Feb 22 08:17 ESE 5 1.75 Fog/Mist OVC002 40 40     100% 37   30.32        
Feb 22 07:53 ESE 5 0.5 Fog VV003 40 40     100% 37   30.32 30.33      
Feb 22 07:39 Calm 0.5 Fog OVC002 39 39     100%     30.32        
Feb 22 06:53 Calm 1.5 Fog/Mist OVC004 39 39     100%     30.34 30.34      
Feb 22 05:53 W 3 1.5 Fog/Mist OVC003 39 39     100% 37   30.33 30.34      
Feb 22 04:53 W 6 1.75 Fog/Mist OVC003 39 39     100% 35   30.33 30.34      
Feb 22 04:42 W 6 1.75 Fog/Mist OVC003 39 39     100% 35   30.33        
Feb 22 03:53 WSW 3 2.5 Fog/Mist OVC003 39 39     100% 37   30.31 30.32      
Jun 11 22:53 ENE 6 10 Clear CLR 74 63     69%   74 29.94 29.93      
Jun 11 20:53 Calm 10 Clear CLR 82 61     49%   83 29.91 29.89      
Jun 11 14:53 S 9 10 Partly Cloudy SCT060 88 61     40%   88 29.96 29.94      
Jun 11 08:53 E 6 10 Clear CLR 78 65     64%   79 29.97 29.95      
Jun 10 15:53 SSE 11 10 Cloudy OVC055 85 63     48%   86 29.89 29.87      
Jun 09 01:53 NE 5 10 Clear CLR 64 60     87%     29.92 29.91      
Jun 08 11:53 S 5 10 Clear CLR 79 51     38%   78 30.04 30.02      
Jun 07 08:53 ENE 7 10 Partly Cloudy SCT055 72 55     55%   71 30.02 30      
Jun 06 03:22 Calm 3 Fog/Mist CLR 69 67     93%     29.84